This is the latest recevied weather packets stored in our database for station/object M0UPS-13. If no packets are shown the sender has not sent any weather packets the latest 1 day(s).
| Time | Temp. | Humidity | Pressure | Rain* | Wind** | Luminosity | Snow |
|---|---|---|---|---|---|---|---|
| 1778005202 | 15° C | 52% | 1011.6 hPa | 0 mm | 0.89 m/s, 188° | 12 W/m² | - |
| 1778004902 | 15° C | 52% | 1011.6 hPa | 0 mm | 0.45 m/s, 217° | 13 W/m² | - |
| 1778004602 | 15° C | 52% | 1011.6 hPa | 0 mm | 0.45 m/s, 236° | 13 W/m² | - |
| 1778004303 | 15° C | 52% | 1011.6 hPa | 0 mm | 0.89 m/s, 185° | 16 W/m² | - |
| 1778004002 | 15° C | 52% | 1011.6 hPa | 0 mm | 0.45 m/s, 234° | 18 W/m² | - |
| 1778003702 | 15° C | 52% | 1011.5 hPa | 0 mm | 0.45 m/s, 325° | 17 W/m² | - |
| 1778003402 | 15° C | 51% | 1011.6 hPa | 0 mm | 0.45 m/s, 226° | 15 W/m² | - |
| 1778003102 | 15° C | 51% | 1011.6 hPa | 0 mm | 0 m/s | 12 W/m² | - |
| 1778002802 | 15.56° C | 51% | 1011.6 hPa | 0 mm | 0.45 m/s, 232° | 11 W/m² | - |
| 1778002502 | 15.56° C | 50% | 1011.7 hPa | 0 mm | 0.45 m/s, 336° | 11 W/m² | - |
| 1778002202 | 15.56° C | 50% | 1011.6 hPa | 0 mm | 1.34 m/s, 53° | 12 W/m² | - |
| 1778001902 | 15.56° C | 49% | 1011.7 hPa | 0 mm | 1.34 m/s, 79° | 14 W/m² | - |
| 1778001602 | 15.56° C | 49% | 1011.6 hPa | 0 mm | 0.89 m/s, 154° | 17 W/m² | - |
| 1778001302 | 15.56° C | 49% | 1011.6 hPa | 0 mm | 0.89 m/s, 122° | 17 W/m² | - |
| 1778001002 | 15.56° C | 49% | 1011.6 hPa | 0 mm | 0.45 m/s, 324° | 17 W/m² | - |
| 1778000702 | 15.56° C | 49% | 1011.7 hPa | 0 mm | 0.89 m/s, 199° | 17 W/m² | - |
| 1778000402 | 16.11° C | 49% | 1011.6 hPa | 0 mm | 0.45 m/s, 290° | 21 W/m² | - |
| 1778000102 | 16.11° C | 49% | 1011.7 hPa | 0 mm | 0.89 m/s, 232° | 26 W/m² | - |
| 1777999802 | 16.11° C | 50% | 1011.6 hPa | 0 mm | 0.45 m/s, 259° | 33 W/m² | - |
| 1777999502 | 16.11° C | 50% | 1011.7 hPa | 0 mm | 0 m/s | 42 W/m² | - |
| 1777999202 | 16.11° C | 48% | 1011.5 hPa | 0 mm | 0.89 m/s, 31° | 45 W/m² | - |
| 1777998904 | 16.11° C | 51% | 1011.6 hPa | 0 mm | 0.45 m/s, 249° | 40 W/m² | - |
| 1777998602 | 16.11° C | 49% | 1011.5 hPa | 0 mm | 0.45 m/s, 44° | 50 W/m² | - |
| 1777998302 | 16.11° C | 49% | 1011.5 hPa | 0 mm | 0.45 m/s, 228° | 61 W/m² | - |
| 1777998002 | 16.11° C | 49% | 1011.7 hPa | 0 mm | 0.45 m/s, 97° | 57 W/m² | - |
* Rain latest hour (hover to see other rain measurements)
** Current wind speed in m/s (hover to see current wind gust speed)